Regional Weather Roundup
Issued by NWS

Home | Current Version | Previous Version | Graphics & Text | Print | Product List | Glossary On
Versions: 1 2 3 4 5 6 7 8 9 10 11 12 13 14 15 16 17 18 19 20 21 22 23 24 25 26 27 28 29 30 31 32 33 34 35 36 37 38 39 40 41 42 43 44 45 46 47 48 49 50
000
ASUS43 KOAX 040710
RWRNE

WEATHER ROUNDUP FOR NEBRASKA
NATIONAL WEATHER SERVICE OMAHA NE
200 AM CDT FRI SEP 04 2015

NOTES: SATELLITE DATA IS BEING USED TO AUGMENT CLOUD COVER ABOVE
       12000 FEET.
       "FAIR" INDICATES FEW OR NO CLOUDS BELOW 12,000 FEET WITH NO
       SIGNIFICANT WEATHER AND/OR OBSTRUCTIONS TO VISIBILITY.

  * THESE STATIONS DO NOT REPORT WEATHER SUCH AS RAIN...SNOW OR FOG.

NEZ001>004-019>022-054>056-040800-
NEBRASKA PANHANDLE

CITY           SKY/WX    TMP DP  RH WIND       PRES   REMARKS
SCOTTSBLUFF    PTCLDY    63  59  87 SE3       29.86F
ALLIANCE       CLOUDY    66  53  63 SE6       29.86S
CHADRON        CLOUDY    71  56  58 S6        29.79F
KIMBALL        PTCLDY    55  54  94 CALM      29.92F
SIDNEY         CLEAR     55  51  86 CALM      29.91S
$$

NEZ057>060-069>072-079>082-040800-
SOUTHWEST NEBRASKA

CITY           SKY/WX    TMP DP  RH WIND       PRES   REMARKS
NORTH PLATTE   CLOUDY    70  61  73 N5        29.78F
IMPERIAL       CLOUDY    68  63  84 CALM      29.82F
LEXINGTON      CLOUDY    77  62  60 CALM      29.83R
MCCOOK         MOCLDY    79  59  50 SE6       29.79F
OGALLALA       CLOUDY    68  62  82 CALM      29.81R
$$

NEZ005>010-023>029-035>040-094-040800-
NORTH CENTRAL NEBRASKA

CITY           SKY/WX    TMP DP  RH WIND       PRES   REMARKS
VALENTINE      CLOUDY    75  61  61 SW12      29.80R THUNDER
AINSWORTH      LGT RAIN  77  63  61 S12       29.78R
BROKEN BOW     CLOUDY    79  62  56 SW8       29.83R
O`NEILL        MOCLDY    78  65  64 S9        29.79R
ORD            MOCLDY    76  63  64 SE5       29.79R
THEDFORD       LGT RAIN  73  62  68 W17G29    29.84F
$$

NEZ041-046>049-061>064-073>077-083>087-040800-
SOUTH CENTRAL NEBRASKA

CITY           SKY/WX    TMP DP  RH WIND       PRES   REMARKS
GRAND ISLAND   MOCLDY    76  64  66 SE14      29.82S
AURORA         MOCLDY    76  65  67 S12       29.83S
HASTINGS       MOCLDY    77  62  59 S12       29.82S
HEBRON         MOCLDY    76  64  65 S10G17    29.84S
HOLDREGE       CLOUDY    77  60  57 S12       29.81S
KEARNEY *      CLOUDY    77  61  57 S14       29.80S
YORK           MOCLDY    75  66  73 S12       29.84S
$$

NEZ011>018-030>034-042>045-040800-
NORTHEAST NEBRASKA

CITY           SKY/WX    TMP DP  RH WIND       PRES   REMARKS
NORFOLK        PTCLDY    78  66  66 S17G26    29.81R
ALBION         MOCLDY    73  65  77 SE7       29.82R
BLAIR          CLEAR     75  66  73 S14       29.87R
COLUMBUS *     PTCLDY    75  63  64 S12G17    29.83S
FREMONT        PTCLDY    76  66  69 SE9       29.86R
TEKAMAH        CLEAR     72  70  93 S6        29.85R
WAYNE          MOCLDY    74  69  84 S6        29.83R
$$

NEZ050>053-065>068-078-088>093-040800-
SOUTHEAST NEBRASKA

CITY           SKY/WX    TMP DP  RH WIND       PRES   REMARKS
LINCOLN        MOCLDY    78  67  68 S13       29.86R
OMAHA EPPLEY   MOCLDY    77  68  73 S12       29.87R
BEATRICE       MOCLDY    77  67  73 S12       29.87S
FALLS CITY     MOCLDY    75  68  78 S8        29.89R
NEBRASKA CITY  PTCLDY    72  66  81 S9        29.89R
PLATTSMOUTH    CLEAR     73  66  78 SE8       29.88R
$$

NEZ044-045-051>053-067-040800-
OMAHA AREA

CITY           SKY/WX    TMP DP  RH WIND       PRES   REMARKS
OMAHA EPPLEY   MOCLDY    77  68  73 S12       29.87R
BLAIR          CLEAR     75  66  73 S14       29.87R
FREMONT        PTCLDY    76  66  69 SE9       29.86R
MILLARD        CLEAR     75  69  79 SE6       29.86S
OFFUTT AFB     PTCLDY    74  68  80 SE7       29.86R
PLATTSMOUTH    CLEAR     73  66  78 SE8       29.88R
WAHOO          FAIR      73  68  84 S8        29.85S
$$




USA.gov is the U.S. government's official web portal to all federal, state and local government web resources and services.